{"data":{"norad_id":45686,"intl_designator":"2020-035AF","name":"STARLINK-1404","alt_names":[],"object_type":"PAYLOAD","status":"ACTIVE","operator":null,"country":"US","launch_date":"2020-06-04","launch_site_code":"AFETR","launch_vehicle":null,"mission":null,"orbit_class":"UNKNOWN","rcs_meters":null,"size_class":null,"mass_kg":null,"dimensions":null,"purposes":["comms"],"wikipedia_slug":null,"has_3d_model":false,"image_url":null,"decayed_at":null,"tle_current":{"epoch":"2026-05-25T01:25:01.695360Z","epoch_age_seconds":69253,"freshness":"FRESH","line1":"1 45686U 20035AF  26145.05904740  .00051140  00000+0  11545-2 0  9994","line2":"2 45686  53.1586  50.8220 0004969 111.4124 248.7412 15.42723270330724","mean_motion":15.4272327,"eccentricity":0.0004969,"inclination_deg":53.1586,"raan_deg":50.822,"arg_perigee_deg":111.4124,"mean_anomaly_deg":248.7412,"bstar":0.0011545,"rev_number":33072,"period_min":93.341432517577,"perigee_km":434.68904220706,"apogee_km":441.4629947048,"semimajor_km":6816.2130184559,"source":"CELESTRAK","updated_at":"2026-05-25T13:38:16.429258Z"}}}